Regional Weather Roundup
Issued by NWS Sioux Falls, SD

Home | Current Version | Previous Version | Text Only | Print | Product List | Glossary On
Versions: 1 2 3 4 5 6 7 8 9 10 11 12 13 14 15 16 17 18 19 20 21 22 23 24 25 26 27 28 29 30 31 32 33 34 35 36 37 38 39 40 41 42 43 44 45 46 47 48 49 50
000
ASUS43 KFSD 272202
RWRFSD

WEATHER ROUNDUP FOR SE SOUTH DAKOTA/SW MINNESOTA/NW IOWA
NATIONAL WEATHER SERVICE SIOUX FALLS SD
500 PM CDT WED MAY 27 2015

NOTE: "FAIR" INDICATES FEW OR NO CLOUDS BELOW 12,000 FEET WITH NO
SIGNIFICANT WEATHER AND OR OBSTRUCTIONS TO VISIBILITY.


SDZ038>040-050-052>070-272300-
SOUTHEAST SOUTH DAKOTA

CITY           SKY/WX    TMP DP  RH WIND       PRES   REMARKS
BROOKINGS      MOSUNNY   82  45  26 W3        30.00F
CHAMBERLAIN    CLOUDY    77  52  41 S15G26    29.98F
HURON            N/A    N/A N/A N/A MISG      29.96F
MADISON        FAIR      82  46  28 NW8       30.01F
MITCHELL       PTSUNNY   82  50  32 SW8       29.99F
SIOUX FALLS    PTSUNNY   80  51  36 SW3       30.00F
WINNER         MOCLDY    81  47  30 S16       29.98F
YANKTON        PTSUNNY   82  50  32 S9        29.99F
$$

MNZ071-072-080-081-089-090-097-098-272300-
SOUTHWEST MINNESOTA

CITY           SKY/WX    TMP DP  RH WIND       PRES   REMARKS
FAIRMONT       SUNNY     84  46  26 NW10      30.00S
JACKSON        MOSUNNY   82  46  28 W7        30.01F
LUVERNE        MOSUNNY   82  45  26 SW9       30.02S
MARSHALL       MOSUNNY   82  46  28 NW6       29.98S
MONTEVIDEO     SUNNY     88  45  22 N6        29.98S
REDWOOD FALLS  SUNNY     85  46  25 W6        29.97F
TRACY          MOSUNNY   84  46  26 NW7       30.00S
WINDOM         MOSUNNY   82  45  26 CALM      30.01S
WORTHINGTON    MOSUNNY   82  45  26 W6        30.01S
$$

IAZ001>003-012>014-020>022-031-032-NEZ013-014-SDZ071-272300-
NORTHWEST IOWA

CITY           SKY/WX    TMP DP  RH WIND       PRES   REMARKS
DENISON        SUNNY     81  55  41 SW9       30.03F
ESTHERVILLE    SUNNY     83  48  29 SW9       30.00F
SIOUX CITY     MOSUNNY   84  49  29 SW7       30.01F
SPENCER        SUNNY     84  48  28 SW9       30.02S
$$

ABBREVIATIONS USED IN REMARKS
   TC - TEMPERATURE IN CELSIUS
  WCI - WIND CHILL INDEX
   HX - HEAT INDEX
  VSB - VISIBILITY




USA.gov is the U.S. government's official web portal to all federal, state and local government web resources and services.